Location: Fensholt
(55.9856°N, 10.0808°E)
Time: 04:27:26
(UTC+00:00)

Cosmos 1400 Rocket - Pass Details

Date: 04 October 2020
Orbit: 521 x 568 km, 81.2° (Epoch: 21 October)

Event Time Altitude Azimuth Distance (km) Brightness Sun altitude
Exits shadow 21:25:24 10° 11° (N) 1,861 6.0 -34.9°
Drops below altitude 10° 21:25:25 10° 11° (N) 1,868 6.0 -34.9°
Sets 21:27:40 0° 14° (NNE) 2,785 7.0 -35.0°
